owner,sensor,date,latitude,longitude,vertical_datum,mass_concentration_of_oxygen_in_sea_water,qcFlag 
DISL,ioos:station:DISL:MHPA:1,2012-10-01T00:00:00Z,30.6671,-87.9365,4.819,6.14,1111122 
DISL,ioos:station:DISL:MHPA:1,2012-10-01T00:30:00Z,30.6671,-87.9365,4.898,6.0,1111122 
DISL,ioos:station:DISL:MHPA:1,2012-10-01T01:00:00Z,30.6671,-87.9365,5.087,5.98,1111122 
DISL,ioos:station:DISL:MHPA:1,2012-10-01T01:30:00Z,30.6671,-87.9365,5.205,5.92,1111122 
DISL,ioos:station:DISL:MHPA:1,2012-10-01T02:00:00Z,30.6671,-87.9365,5.119,5.77,1111122 
DISL,ioos:station:DISL:MHPA:1,2012-10-01T02:30:00Z,30.6671,-87.9365,5.051,5.52,1111122 
DISL,ioos:station:DISL:MHPA:1,2012-10-01T03:00:00Z,30.6671,-87.9365,5.235,5.71,1111122 
DISL,ioos:station:DISL:MHPA:1,2012-10-01T03:30:00Z,30.6671,-87.9365,5.326,5.71,1111122 
DISL,ioos:station:DISL:MHPA:1,2012-10-01T04:00:00Z,30.6671,-87.9365,5.38,5.67,1111122 
DISL,ioos:station:DISL:MHPA:1,2012-10-01T04:30:00Z,30.6671,-87.9365,5.592,5.84,1111122 
DISL,ioos:station:DISL:MHPA:1,2012-10-01T05:00:00Z,30.6671,-87.9365,5.819,6.14,1111122 
DISL,ioos:station:DISL:MHPA:1,2012-10-01T05:30:00Z,30.6671,-87.9365,6.263,6.1,1111122 
DISL,ioos:station:DISL:MHPA:1,2012-10-01T06:00:00Z,30.6671,-87.9365,5.997,6.03,1111122 
DISL,ioos:station:DISL:MHPA:1,2012-10-01T06:30:00Z,30.6671,-87.9365,5.746,6.02,1111122 
DISL,ioos:station:DISL:MHPA:1,2012-10-01T07:00:00Z,30.6671,-87.9365,5.797,6.02,1111122 
DISL,ioos:station:DISL:MHPA:1,2012-10-01T07:30:00Z,30.6671,-87.9365,5.698,5.94,1111122 
DISL,ioos:station:DISL:MHPA:1,2012-10-01T08:00:00Z,30.6671,-87.9365,5.717,5.7,1111122 
DISL,ioos:station:DISL:MHPA:1,2012-10-01T08:30:00Z,30.6671,-87.9365,5.468,5.78,1111122 
DISL,ioos:station:DISL:MHPA:1,2012-10-01T09:00:00Z,30.6671,-87.9365,5.228,5.73,1111122 
DISL,ioos:station:DISL:MHPA:1,2012-10-01T09:30:00Z,30.6671,-87.9365,5.403,5.87,1111122 
DISL,ioos:station:DISL:MHPA:1,2012-10-01T10:00:00Z,30.6671,-87.9365,5.439,5.75,1111122 
DISL,ioos:station:DISL:MHPA:1,2012-10-01T10:30:00Z,30.6671,-87.9365,5.324,5.52,1111122 
DISL,ioos:station:DISL:MHPA:1,2012-10-01T11:00:00Z,30.6671,-87.9365,5.157,5.57,1111122 
DISL,ioos:station:DISL:MHPA:1,2012-10-01T11:30:00Z,30.6671,-87.9365,5.006,5.59,1111122 
DISL,ioos:station:DISL:MHPA:1,2012-10-01T12:00:00Z,30.6671,-87.9365,4.895,5.31,1111122 
DISL,ioos:station:DISL:MHPA:1,2012-10-01T12:30:00Z,30.6671,-87.9365,4.85,5.48,1111122 
DISL,ioos:station:DISL:MHPA:1,2012-10-01T13:00:00Z,30.6671,-87.9365,4.778,5.43,1111122 
DISL,ioos:station:DISL:MHPA:1,2012-10-01T13:30:00Z,30.6671,-87.9365,4.738,5.46,1111122 
DISL,ioos:station:DISL:MHPA:1,2012-10-01T14:00:00Z,30.6671,-87.9365,4.643,5.72,1111122 
DISL,ioos:station:DISL:MHPA:1,2012-10-01T14:30:00Z,30.6671,-87.9365,4.594,5.51,1111122 
DISL,ioos:station:DISL:MHPA:1,2012-10-01T15:00:00Z,30.6671,-87.9365,4.533,5.71,1111122 
DISL,ioos:station:DISL:MHPA:1,2012-10-01T15:30:00Z,30.6671,-87.9365,4.456,5.88,1111122 
DISL,ioos:station:DISL:MHPA:1,2012-10-01T16:00:00Z,30.6671,-87.9365,4.606,5.88,1111122 
DISL,ioos:station:DISL:MHPA:1,2012-10-01T16:30:00Z,30.6671,-87.9365,4.493,5.83,1111122 
DISL,ioos:station:DISL:MHPA:1,2012-10-01T17:00:00Z,30.6671,-87.9365,4.343,5.93,1111122 
DISL,ioos:station:DISL:MHPA:1,2012-10-01T17:30:00Z,30.6671,-87.9365,4.516,5.99,1111122 
DISL,ioos:station:DISL:MHPA:1,2012-10-01T18:00:00Z,30.6671,-87.9365,4.607,6.12,1111122 
DISL,ioos:station:DISL:MHPA:1,2012-10-01T18:30:00Z,30.6671,-87.9365,4.437,6.21,1111122 
DISL,ioos:station:DISL:MHPA:1,2012-10-01T19:00:00Z,30.6671,-87.9365,4.475,6.46,1111122 
DISL,ioos:station:DISL:MHPA:1,2012-10-01T19:30:00Z,30.6671,-87.9365,4.617,6.57,1111122 
DISL,ioos:station:DISL:MHPA:1,2012-10-01T20:00:00Z,30.6671,-87.9365,4.607,6.71,1111122 
DISL,ioos:station:DISL:MHPA:1,2012-10-01T20:30:00Z,30.6671,-87.9365,4.658,6.97,1111122 
DISL,ioos:station:DISL:MHPA:1,2012-10-01T21:00:00Z,30.6671,-87.9365,4.659,6.92,1111122 
DISL,ioos:station:DISL:MHPA:1,2012-10-01T21:30:00Z,30.6671,-87.9365,4.733,7.14,1111122 
DISL,ioos:station:DISL:MHPA:1,2012-10-01T22:00:00Z,30.6671,-87.9365,4.706,7.23,1111122 
DISL,ioos:station:DISL:MHPA:1,2012-10-01T22:30:00Z,30.6671,-87.9365,4.637,7.1,1111122 
DISL,ioos:station:DISL:MHPA:1,2012-10-01T23:00:00Z,30.6671,-87.9365,4.508,7.43,1111122 
DISL,ioos:station:DISL:MHPA:1,2012-10-01T23:30:00Z,30.6671,-87.9365,4.497,7.32,1111122 
DISL,ioos:station:DISL:MHPA:1,2012-10-02T00:00:00Z,30.6671,-87.9365,4.451,7.48,1111122 
DISL,ioos:station:DISL:MHPA:1,2012-10-02T00:30:00Z,30.6671,-87.9365,4.425,7.24,1111122 
DISL,ioos:station:DISL:MHPA:1,2012-10-02T01:00:00Z,30.6671,-87.9365,4.349,7.48,1111122 
DISL,ioos:station:DISL:MHPA:1,2012-10-02T01:30:00Z,30.6671,-87.9365,4.386,7.31,1111122 
DISL,ioos:station:DISL:MHPA:1,2012-10-02T02:00:00Z,30.6671,-87.9365,4.391,7.2,1111122 
DISL,ioos:station:DISL:MHPA:1,2012-10-02T02:30:00Z,30.6671,-87.9365,4.334,7.15,1111122 
DISL,ioos:station:DISL:MHPA:1,2012-10-02T03:00:00Z,30.6671,-87.9365,4.403,7.26,1111122 
DISL,ioos:station:DISL:MHPA:1,2012-10-02T03:30:00Z,30.6671,-87.9365,4.436,7.18,1111122 
DISL,ioos:station:DISL:MHPA:1,2012-10-02T04:00:00Z,30.6671,-87.9365,4.428,7.08,1111122 
DISL,ioos:station:DISL:MHPA:1,2012-10-02T04:30:00Z,30.6671,-87.9365,4.392,7.04,1111122 
DISL,ioos:station:DISL:MHPA:1,2012-10-02T05:00:00Z,30.6671,-87.9365,4.388,6.93,1111122 
DISL,ioos:station:DISL:MHPA:1,2012-10-02T05:30:00Z,30.6671,-87.9365,4.383,7.18,1111122 
DISL,ioos:station:DISL:MHPA:1,2012-10-02T06:00:00Z,30.6671,-87.9365,4.486,7.12,1111122 
DISL,ioos:station:DISL:MHPA:1,2012-10-02T06:30:00Z,30.6671,-87.9365,4.489,6.98,1111122 
DISL,ioos:station:DISL:MHPA:1,2012-10-02T07:00:00Z,30.6671,-87.9365,4.524,6.87,1111122 
DISL,ioos:station:DISL:MHPA:1,2012-10-02T07:30:00Z,30.6671,-87.9365,4.531,6.91,1111122 
DISL,ioos:station:DISL:MHPA:1,2012-10-02T08:00:00Z,30.6671,-87.9365,4.479,6.84,1111122 
DISL,ioos:station:DISL:MHPA:1,2012-10-02T08:30:00Z,30.6671,-87.9365,4.455,7.0,1111122 
DISL,ioos:station:DISL:MHPA:1,2012-10-02T09:00:00Z,30.6671,-87.9365,4.344,6.83,1111122 
DISL,ioos:station:DISL:MHPA:1,2012-10-02T09:30:00Z,30.6671,-87.9365,4.273,6.83,1111122 
DISL,ioos:station:DISL:MHPA:1,2012-10-02T10:00:00Z,30.6671,-87.9365,4.177,6.84,1111122 
DISL,ioos:station:DISL:MHPA:1,2012-10-02T10:30:00Z,30.6671,-87.9365,4.032,6.8,1111122 
DISL,ioos:station:DISL:MHPA:1,2012-10-02T11:00:00Z,30.6671,-87.9365,3.945,6.64,1111122 
DISL,ioos:station:DISL:MHPA:1,2012-10-02T11:30:00Z,30.6671,-87.9365,3.866,6.69,1111122 
DISL,ioos:station:DISL:MHPA:1,2012-10-02T12:00:00Z,30.6671,-87.9365,3.769,6.59,1111122 
DISL,ioos:station:DISL:MHPA:1,2012-10-02T12:30:00Z,30.6671,-87.9365,3.674,6.58,1111122 
DISL,ioos:station:DISL:MHPA:1,2012-10-02T13:00:00Z,30.6671,-87.9365,3.561,6.45,1111122 
DISL,ioos:station:DISL:MHPA:1,2012-10-02T13:30:00Z,30.6671,-87.9365,3.473,6.5,1111122 
DISL,ioos:station:DISL:MHPA:1,2012-10-02T14:00:00Z,30.6671,-87.9365,3.37,6.44,1111122 
DISL,ioos:station:DISL:MHPA:1,2012-10-02T14:30:00Z,30.6671,-87.9365,3.301,6.56,1111122 
DISL,ioos:station:DISL:MHPA:1,2012-10-02T15:00:00Z,30.6671,-87.9365,3.252,6.69,1111122 
DISL,ioos:station:DISL:MHPA:1,2012-10-02T15:30:00Z,30.6671,-87.9365,3.202,6.88,1111122 
DISL,ioos:station:DISL:MHPA:1,2012-10-02T16:00:00Z,30.6671,-87.9365,3.183,6.93,1111122 
DISL,ioos:station:DISL:MHPA:1,2012-10-02T16:30:00Z,30.6671,-87.9365,3.216,6.92,1111122 
DISL,ioos:station:DISL:MHPA:1,2012-10-02T17:00:00Z,30.6671,-87.9365,3.181,7.14,1111122 
DISL,ioos:station:DISL:MHPA:1,2012-10-02T17:30:00Z,30.6671,-87.9365,3.127,7.31,1111122 
DISL,ioos:station:DISL:MHPA:1,2012-10-02T18:00:00Z,30.6671,-87.9365,3.162,7.63,1111122 
DISL,ioos:station:DISL:MHPA:1,2012-10-02T18:30:00Z,30.6671,-87.9365,3.225,7.93,1111122 
DISL,ioos:station:DISL:MHPA:1,2012-10-02T19:00:00Z,30.6671,-87.9365,3.229,8.16,1111122 
DISL,ioos:station:DISL:MHPA:1,2012-10-02T19:30:00Z,30.6671,-87.9365,3.317,8.18,1111122 
DISL,ioos:station:DISL:MHPA:1,2012-10-02T20:00:00Z,30.6671,-87.9365,3.444,8.03,1111122 
DISL,ioos:station:DISL:MHPA:1,2012-10-02T20:30:00Z,30.6671,-87.9365,3.585,8.28,1111122 
DISL,ioos:station:DISL:MHPA:1,2012-10-02T21:00:00Z,30.6671,-87.9365,3.689,8.73,1111122 
DISL,ioos:station:DISL:MHPA:1,2012-10-02T21:30:00Z,30.6671,-87.9365,3.739,8.89,1111122 
DISL,ioos:station:DISL:MHPA:1,2012-10-02T22:00:00Z,30.6671,-87.9365,3.817,9.01,1111122 
DISL,ioos:station:DISL:MHPA:1,2012-10-02T22:30:00Z,30.6671,-87.9365,3.9,9.15,1111122 
DISL,ioos:station:DISL:MHPA:1,2012-10-02T23:00:00Z,30.6671,-87.9365,3.912,9.22,1111122 
DISL,ioos:station:DISL:MHPA:1,2012-10-02T23:30:00Z,30.6671,-87.9365,3.984,9.64,1111122 
DISL,ioos:station:DISL:MHPA:1,2012-10-03T00:00:00Z,30.6671,-87.9365,4.03,10.18,1111122 
DISL,ioos:station:DISL:MHPA:1,2012-10-03T00:30:00Z,30.6671,-87.9365,4.052,9.83,1111122 
DISL,ioos:station:DISL:MHPA:1,2012-10-03T01:00:00Z,30.6671,-87.9365,4.096,9.85,1111122 
DISL,ioos:station:DISL:MHPA:1,2012-10-03T01:30:00Z,30.6671,-87.9365,4.185,9.99,1111122 
DISL,ioos:station:DISL:MHPA:1,2012-10-03T02:00:00Z,30.6671,-87.9365,4.267,9.4,1111122 
DISL,ioos:station:DISL:MHPA:1,2012-10-03T02:30:00Z,30.6671,-87.9365,4.319,9.92,1111122 
DISL,ioos:station:DISL:MHPA:1,2012-10-03T03:00:00Z,30.6671,-87.9365,4.402,9.99,1111122 
DISL,ioos:station:DISL:MHPA:1,2012-10-03T03:30:00Z,30.6671,-87.9365,4.416,9.9,1111122 
DISL,ioos:station:DISL:MHPA:1,2012-10-03T04:00:00Z,30.6671,-87.9365,4.447,9.67,1111122 
DISL,ioos:station:DISL:MHPA:1,2012-10-03T04:30:00Z,30.6671,-87.9365,4.502,9.49,1111122 
DISL,ioos:station:DISL:MHPA:1,2012-10-03T05:00:00Z,30.6671,-87.9365,4.577,9.46,1111122 
DISL,ioos:station:DISL:MHPA:1,2012-10-03T05:30:00Z,30.6671,-87.9365,4.6,9.07,1111122 
DISL,ioos:station:DISL:MHPA:1,2012-10-03T06:00:00Z,30.6671,-87.9365,4.651,8.89,1111122 
DISL,ioos:station:DISL:MHPA:1,2012-10-03T06:30:00Z,30.6671,-87.9365,4.637,8.81,1111122 
DISL,ioos:station:DISL:MHPA:1,2012-10-03T07:00:00Z,30.6671,-87.9365,4.613,8.54,1111122 
DISL,ioos:station:DISL:MHPA:1,2012-10-03T07:30:00Z,30.6671,-87.9365,4.646,8.49,1111122 
DISL,ioos:station:DISL:MHPA:1,2012-10-03T08:00:00Z,30.6671,-87.9365,4.564,8.36,1111122 
DISL,ioos:station:DISL:MHPA:1,2012-10-03T08:30:00Z,30.6671,-87.9365,4.425,8.21,1111122 
DISL,ioos:station:DISL:MHPA:1,2012-10-03T09:00:00Z,30.6671,-87.9365,4.295,8.07,1111122 
DISL,ioos:station:DISL:MHPA:1,2012-10-03T09:30:00Z,30.6671,-87.9365,4.165,8.05,1111122 
DISL,ioos:station:DISL:MHPA:1,2012-10-03T10:00:00Z,30.6671,-87.9365,4.034,7.66,1111122 
DISL,ioos:station:DISL:MHPA:1,2012-10-03T10:30:00Z,30.6671,-87.9365,3.927,7.12,1111122 
DISL,ioos:station:DISL:MHPA:1,2012-10-03T11:00:00Z,30.6671,-87.9365,3.828,7.12,1111122 
DISL,ioos:station:DISL:MHPA:1,2012-10-03T11:30:00Z,30.6671,-87.9365,3.757,7.02,1111122 
DISL,ioos:station:DISL:MHPA:1,2012-10-03T12:00:00Z,30.6671,-87.9365,3.638,6.95,1111122 
DISL,ioos:station:DISL:MHPA:1,2012-10-03T12:30:00Z,30.6671,-87.9365,3.532,6.88,1111122 
DISL,ioos:station:DISL:MHPA:1,2012-10-03T13:00:00Z,30.6671,-87.9365,3.436,6.84,1111122 
DISL,ioos:station:DISL:MHPA:1,2012-10-03T13:30:00Z,30.6671,-87.9365,3.351,7.17,1111122 
DISL,ioos:station:DISL:MHPA:1,2012-10-03T14:00:00Z,30.6671,-87.9365,3.282,7.67,1111122 
DISL,ioos:station:DISL:MHPA:1,2012-10-03T14:30:00Z,30.6671,-87.9365,3.206,7.58,1111122 
DISL,ioos:station:DISL:MHPA:1,2012-10-03T15:00:00Z,30.6671,-87.9365,3.121,7.59,1111122 
DISL,ioos:station:DISL:MHPA:1,2012-10-03T15:30:00Z,30.6671,-87.9365,3.073,7.87,1111122 
DISL,ioos:station:DISL:MHPA:1,2012-10-03T16:00:00Z,30.6671,-87.9365,3.057,8.2,1111122 
DISL,ioos:station:DISL:MHPA:1,2012-10-03T16:30:00Z,30.6671,-87.9365,3.068,7.92,1111122 
DISL,ioos:station:DISL:MHPA:1,2012-10-03T17:00:00Z,30.6671,-87.9365,3.097,7.0,1111122 
DISL,ioos:station:DISL:MHPA:1,2012-10-03T17:30:00Z,30.6671,-87.9365,3.126,7.18,1111122 
DISL,ioos:station:DISL:MHPA:1,2012-10-03T18:00:00Z,30.6671,-87.9365,3.132,7.76,1111122 
DISL,ioos:station:DISL:MHPA:1,2012-10-03T18:30:00Z,30.6671,-87.9365,3.148,8.46,1111122 
DISL,ioos:station:DISL:MHPA:1,2012-10-03T19:00:00Z,30.6671,-87.9365,3.274,10.84,1111122 
DISL,ioos:station:DISL:MHPA:1,2012-10-03T19:30:00Z,30.6671,-87.9365,3.336,9.31,1111122 
DISL,ioos:station:DISL:MHPA:1,2012-10-03T20:00:00Z,30.6671,-87.9365,3.399,8.89,1111122 
DISL,ioos:station:DISL:MHPA:1,2012-10-03T20:30:00Z,30.6671,-87.9365,3.507,9.19,1111122 
DISL,ioos:station:DISL:MHPA:1,2012-10-03T21:00:00Z,30.6671,-87.9365,3.621,9.69,1111122 
DISL,ioos:station:DISL:MHPA:1,2012-10-03T21:30:00Z,30.6671,-87.9365,3.68,10.6,1111122 
DISL,ioos:station:DISL:MHPA:1,2012-10-03T22:00:00Z,30.6671,-87.9365,3.791,10.23,1111122 
DISL,ioos:station:DISL:MHPA:1,2012-10-03T22:30:00Z,30.6671,-87.9365,3.938,9.12,1111122 
DISL,ioos:station:DISL:MHPA:1,2012-10-03T23:00:00Z,30.6671,-87.9365,3.926,9.8,1111122 
DISL,ioos:station:DISL:MHPA:1,2012-10-03T23:30:00Z,30.6671,-87.9365,3.961,11.39,1111122 
DISL,ioos:station:DISL:MHPA:1,2012-10-04T00:00:00Z,30.6671,-87.9365,4.053,10.3,1111122 
DISL,ioos:station:DISL:MHPA:1,2012-10-04T00:30:00Z,30.6671,-87.9365,4.064,10.08,1111122 
DISL,ioos:station:DISL:MHPA:1,2012-10-04T01:00:00Z,30.6671,-87.9365,4.118,9.94,1111122 
DISL,ioos:station:DISL:MHPA:1,2012-10-04T01:30:00Z,30.6671,-87.9365,4.172,9.18,1111122 
DISL,ioos:station:DISL:MHPA:1,2012-10-04T02:00:00Z,30.6671,-87.9365,4.249,9.11,1111122 
DISL,ioos:station:DISL:MHPA:1,2012-10-04T02:30:00Z,30.6671,-87.9365,4.257,9.84,1111122 
DISL,ioos:station:DISL:MHPA:1,2012-10-04T03:00:00Z,30.6671,-87.9365,4.329,10.48,1111122 
DISL,ioos:station:DISL:MHPA:1,2012-10-04T03:30:00Z,30.6671,-87.9365,4.43,9.89,1111122 
DISL,ioos:station:DISL:MHPA:1,2012-10-04T04:00:00Z,30.6671,-87.9365,4.474,8.39,1111122 
DISL,ioos:station:DISL:MHPA:1,2012-10-04T04:30:00Z,30.6671,-87.9365,4.518,7.96,1111122 
DISL,ioos:station:DISL:MHPA:1,2012-10-04T05:00:00Z,30.6671,-87.9365,4.605,7.75,1111122 
DISL,ioos:station:DISL:MHPA:1,2012-10-04T05:30:00Z,30.6671,-87.9365,4.679,8.25,1111122 
DISL,ioos:station:DISL:MHPA:1,2012-10-04T06:00:00Z,30.6671,-87.9365,4.71,8.31,1111122 
DISL,ioos:station:DISL:MHPA:1,2012-10-04T06:30:00Z,30.6671,-87.9365,4.746,8.36,1111122 
DISL,ioos:station:DISL:MHPA:1,2012-10-04T07:00:00Z,30.6671,-87.9365,4.784,8.03,1111122 
DISL,ioos:station:DISL:MHPA:1,2012-10-04T07:30:00Z,30.6671,-87.9365,4.748,8.4,1111122 
DISL,ioos:station:DISL:MHPA:1,2012-10-04T08:00:00Z,30.6671,-87.9365,4.67,8.63,1111122 
DISL,ioos:station:DISL:MHPA:1,2012-10-04T08:30:00Z,30.6671,-87.9365,4.611,8.92,1111122 
DISL,ioos:station:DISL:MHPA:1,2012-10-04T09:00:00Z,30.6671,-87.9365,4.52,9.0,1111122 
DISL,ioos:station:DISL:MHPA:1,2012-10-04T09:30:00Z,30.6671,-87.9365,4.443,9.08,1111122 
DISL,ioos:station:DISL:MHPA:1,2012-10-04T10:00:00Z,30.6671,-87.9365,4.298,8.69,1111122 
DISL,ioos:station:DISL:MHPA:1,2012-10-04T10:30:00Z,30.6671,-87.9365,4.167,8.58,1111122 
DISL,ioos:station:DISL:MHPA:1,2012-10-04T11:00:00Z,30.6671,-87.9365,4.07,8.43,1111122 
DISL,ioos:station:DISL:MHPA:1,2012-10-04T11:30:00Z,30.6671,-87.9365,3.952,8.38,1111122 
DISL,ioos:station:DISL:MHPA:1,2012-10-04T12:00:00Z,30.6671,-87.9365,3.829,8.45,1111122 
DISL,ioos:station:DISL:MHPA:1,2012-10-04T12:30:00Z,30.6671,-87.9365,3.709,8.3,1111122 
DISL,ioos:station:DISL:MHPA:1,2012-10-04T13:00:00Z,30.6671,-87.9365,3.613,7.81,1111122 
DISL,ioos:station:DISL:MHPA:1,2012-10-04T13:30:00Z,30.6671,-87.9365,3.523,8.47,1111122 
DISL,ioos:station:DISL:MHPA:1,2012-10-04T14:00:00Z,30.6671,-87.9365,3.442,8.52,1111122 
DISL,ioos:station:DISL:MHPA:1,2012-10-04T14:30:00Z,30.6671,-87.9365,3.352,8.43,1111122 
DISL,ioos:station:DISL:MHPA:1,2012-10-04T15:00:00Z,30.6671,-87.9365,3.261,8.14,1111122 
DISL,ioos:station:DISL:MHPA:1,2012-10-04T15:30:00Z,30.6671,-87.9365,3.173,7.98,1111122 
DISL,ioos:station:DISL:MHPA:1,2012-10-04T16:00:00Z,30.6671,-87.9365,3.096,8.25,1111122 
DISL,ioos:station:DISL:MHPA:1,2012-10-04T16:30:00Z,30.6671,-87.9365,3.044,8.04,1111122 
DISL,ioos:station:DISL:MHPA:1,2012-10-04T17:00:00Z,30.6671,-87.9365,3.001,7.84,1111122 
DISL,ioos:station:DISL:MHPA:1,2012-10-04T17:30:00Z,30.6671,-87.9365,2.971,8.23,1111122 
DISL,ioos:station:DISL:MHPA:1,2012-10-04T18:00:00Z,30.6671,-87.9365,2.975,9.08,1111122 
DISL,ioos:station:DISL:MHPA:1,2012-10-04T18:30:00Z,30.6671,-87.9365,2.957,9.78,1111122 
DISL,ioos:station:DISL:MHPA:1,2012-10-04T19:00:00Z,30.6671,-87.9365,2.953,10.3,1111122 
DISL,ioos:station:DISL:MHPA:1,2012-10-04T19:30:00Z,30.6671,-87.9365,2.975,10.54,1111122 
DISL,ioos:station:DISL:MHPA:1,2012-10-04T20:00:00Z,30.6671,-87.9365,3.02,10.51,1111122 
DISL,ioos:station:DISL:MHPA:1,2012-10-04T20:30:00Z,30.6671,-87.9365,3.104,10.29,1111122 
DISL,ioos:station:DISL:MHPA:1,2012-10-04T21:00:00Z,30.6671,-87.9365,3.165,11.61,1111122 
DISL,ioos:station:DISL:MHPA:1,2012-10-04T21:30:00Z,30.6671,-87.9365,3.221,10.83,1111122 
DISL,ioos:station:DISL:MHPA:1,2012-10-04T22:00:00Z,30.6671,-87.9365,3.313,11.65,1111122 
DISL,ioos:station:DISL:MHPA:1,2012-10-04T22:30:00Z,30.6671,-87.9365,3.374,11.41,1111122 
DISL,ioos:station:DISL:MHPA:1,2012-10-04T23:00:00Z,30.6671,-87.9365,3.456,12.1,1111122 
DISL,ioos:station:DISL:MHPA:1,2012-10-04T23:30:00Z,30.6671,-87.9365,3.535,10.75,1111122 
DISL,ioos:station:DISL:MHPA:1,2012-10-05T00:00:00Z,30.6671,-87.9365,3.586,10.7,1111122 
DISL,ioos:station:DISL:MHPA:1,2012-10-05T00:30:00Z,30.6671,-87.9365,3.648,9.81,1111122 
DISL,ioos:station:DISL:MHPA:1,2012-10-05T01:00:00Z,30.6671,-87.9365,3.74,8.32,1111122 
DISL,ioos:station:DISL:MHPA:1,2012-10-05T01:30:00Z,30.6671,-87.9365,3.821,8.45,1111122 
DISL,ioos:station:DISL:MHPA:1,2012-10-05T02:00:00Z,30.6671,-87.9365,3.919,8.26,1111122 
DISL,ioos:station:DISL:MHPA:1,2012-10-05T02:30:00Z,30.6671,-87.9365,4.019,8.74,1111122 
DISL,ioos:station:DISL:MHPA:1,2012-10-05T03:00:00Z,30.6671,-87.9365,4.074,8.76,1111122 
DISL,ioos:station:DISL:MHPA:1,2012-10-05T03:30:00Z,30.6671,-87.9365,4.148,8.56,1111122 
DISL,ioos:station:DISL:MHPA:1,2012-10-05T04:00:00Z,30.6671,-87.9365,4.232,8.61,1111122 
DISL,ioos:station:DISL:MHPA:1,2012-10-05T04:30:00Z,30.6671,-87.9365,4.323,8.91,1111122 
DISL,ioos:station:DISL:MHPA:1,2012-10-05T05:00:00Z,30.6671,-87.9365,4.355,8.53,1111122 
DISL,ioos:station:DISL:MHPA:1,2012-10-05T05:30:00Z,30.6671,-87.9365,4.437,8.82,1111122 
DISL,ioos:station:DISL:MHPA:1,2012-10-05T06:00:00Z,30.6671,-87.9365,4.526,8.61,1111122 
DISL,ioos:station:DISL:MHPA:1,2012-10-05T06:30:00Z,30.6671,-87.9365,4.561,7.44,1111122 
DISL,ioos:station:DISL:MHPA:1,2012-10-05T07:00:00Z,30.6671,-87.9365,4.587,7.16,1111122 
DISL,ioos:station:DISL:MHPA:1,2012-10-05T07:30:00Z,30.6671,-87.9365,4.567,7.87,1111122 
DISL,ioos:station:DISL:MHPA:1,2012-10-05T08:00:00Z,30.6671,-87.9365,4.527,8.0,1111122 
DISL,ioos:station:DISL:MHPA:1,2012-10-05T08:30:00Z,30.6671,-87.9365,4.488,8.2,1111122 
DISL,ioos:station:DISL:MHPA:1,2012-10-05T09:00:00Z,30.6671,-87.9365,4.404,7.79,1111122 
DISL,ioos:station:DISL:MHPA:1,2012-10-05T09:30:00Z,30.6671,-87.9365,4.332,7.54,1111122 
DISL,ioos:station:DISL:MHPA:1,2012-10-05T10:00:00Z,30.6671,-87.9365,4.236,7.12,1111122 
DISL,ioos:station:DISL:MHPA:1,2012-10-05T10:30:00Z,30.6671,-87.9365,4.108,7.39,1111122 
DISL,ioos:station:DISL:MHPA:1,2012-10-05T11:00:00Z,30.6671,-87.9365,3.995,8.18,1111122 
DISL,ioos:station:DISL:MHPA:1,2012-10-05T11:30:00Z,30.6671,-87.9365,3.888,8.49,1111122 
DISL,ioos:station:DISL:MHPA:1,2012-10-05T12:00:00Z,30.6671,-87.9365,3.791,8.01,1111122 
DISL,ioos:station:DISL:MHPA:1,2012-10-05T12:30:00Z,30.6671,-87.9365,3.694,8.04,1111122 
DISL,ioos:station:DISL:MHPA:1,2012-10-05T13:00:00Z,30.6671,-87.9365,3.572,7.62,1111122 
DISL,ioos:station:DISL:MHPA:1,2012-10-05T13:30:00Z,30.6671,-87.9365,3.463,7.92,1111122 
DISL,ioos:station:DISL:MHPA:1,2012-10-05T14:00:00Z,30.6671,-87.9365,3.347,7.71,1111122 
DISL,ioos:station:DISL:MHPA:1,2012-10-05T14:30:00Z,30.6671,-87.9365,3.27,7.77,1111122 
DISL,ioos:station:DISL:MHPA:1,2012-10-05T15:00:00Z,30.6671,-87.9365,3.206,8.42,1111122 
DISL,ioos:station:DISL:MHPA:1,2012-10-05T15:30:00Z,30.6671,-87.9365,3.143,8.17,1111122 
DISL,ioos:station:DISL:MHPA:1,2012-10-05T16:00:00Z,30.6671,-87.9365,3.103,8.04,1111122 
DISL,ioos:station:DISL:MHPA:1,2012-10-05T16:30:00Z,30.6671,-87.9365,3.097,8.07,1111122 
DISL,ioos:station:DISL:MHPA:1,2012-10-05T17:00:00Z,30.6671,-87.9365,3.074,8.32,1111122 
DISL,ioos:station:DISL:MHPA:1,2012-10-05T17:30:00Z,30.6671,-87.9365,3.026,8.25,1111122 
DISL,ioos:station:DISL:MHPA:1,2012-10-05T18:00:00Z,30.6671,-87.9365,3.001,9.15,1111122 
DISL,ioos:station:DISL:MHPA:1,2012-10-05T18:30:00Z,30.6671,-87.9365,3.005,9.72,1111122 
DISL,ioos:station:DISL:MHPA:1,2012-10-05T19:00:00Z,30.6671,-87.9365,3.021,9.88,1111122 
DISL,ioos:station:DISL:MHPA:1,2012-10-05T19:30:00Z,30.6671,-87.9365,3.07,9.2,1111122 
DISL,ioos:station:DISL:MHPA:1,2012-10-05T20:00:00Z,30.6671,-87.9365,3.126,9.02,1111122 
DISL,ioos:station:DISL:MHPA:1,2012-10-05T20:30:00Z,30.6671,-87.9365,3.177,8.96,1111122 
DISL,ioos:station:DISL:MHPA:1,2012-10-05T21:00:00Z,30.6671,-87.9365,3.304,9.6,1111122 
DISL,ioos:station:DISL:MHPA:1,2012-10-05T21:30:00Z,30.6671,-87.9365,3.43,9.24,1111122 
DISL,ioos:station:DISL:MHPA:1,2012-10-05T22:00:00Z,30.6671,-87.9365,3.53,9.64,1111122 
DISL,ioos:station:DISL:MHPA:1,2012-10-05T22:30:00Z,30.6671,-87.9365,3.618,10.59,1111122 
DISL,ioos:station:DISL:MHPA:1,2012-10-05T23:00:00Z,30.6671,-87.9365,3.781,10.73,1111122 
DISL,ioos:station:DISL:MHPA:1,2012-10-05T23:30:00Z,30.6671,-87.9365,3.949,10.31,1111122 
DISL,ioos:station:DISL:MHPA:1,2012-10-06T00:00:00Z,30.6671,-87.9365,4.04,11.1,1111122 
DISL,ioos:station:DISL:MHPA:1,2012-10-06T00:30:00Z,30.6671,-87.9365,4.151,9.01,1111122 
DISL,ioos:station:DISL:MHPA:1,2012-10-06T01:00:00Z,30.6671,-87.9365,4.177,8.34,1111122 
DISL,ioos:station:DISL:MHPA:1,2012-10-06T01:30:00Z,30.6671,-87.9365,4.157,8.43,1111122 
DISL,ioos:station:DISL:MHPA:1,2012-10-06T02:00:00Z,30.6671,-87.9365,4.246,7.89,1111122 
DISL,ioos:station:DISL:MHPA:1,2012-10-06T02:30:00Z,30.6671,-87.9365,4.316,8.28,1111122 
DISL,ioos:station:DISL:MHPA:1,2012-10-06T03:00:00Z,30.6671,-87.9365,4.366,8.12,1111122 
DISL,ioos:station:DISL:MHPA:1,2012-10-06T03:30:00Z,30.6671,-87.9365,4.447,7.8,1111122 
DISL,ioos:station:DISL:MHPA:1,2012-10-06T04:00:00Z,30.6671,-87.9365,4.515,7.95,1111122 
DISL,ioos:station:DISL:MHPA:1,2012-10-06T04:30:00Z,30.6671,-87.9365,4.59,7.55,1111122 
DISL,ioos:station:DISL:MHPA:1,2012-10-06T05:00:00Z,30.6671,-87.9365,4.636,7.78,1111122 
DISL,ioos:station:DISL:MHPA:1,2012-10-06T05:30:00Z,30.6671,-87.9365,4.73,7.54,1111122 
DISL,ioos:station:DISL:MHPA:1,2012-10-06T06:00:00Z,30.6671,-87.9365,4.76,7.4,1111122 
DISL,ioos:station:DISL:MHPA:1,2012-10-06T06:30:00Z,30.6671,-87.9365,4.777,7.34,1111122 
DISL,ioos:station:DISL:MHPA:1,2012-10-06T07:00:00Z,30.6671,-87.9365,4.763,6.87,1111122 
DISL,ioos:station:DISL:MHPA:1,2012-10-06T07:30:00Z,30.6671,-87.9365,4.765,7.55,1111122 
DISL,ioos:station:DISL:MHPA:1,2012-10-06T08:00:00Z,30.6671,-87.9365,4.721,7.48,1111122 
DISL,ioos:station:DISL:MHPA:1,2012-10-06T08:30:00Z,30.6671,-87.9365,4.674,7.38,1111122 
DISL,ioos:station:DISL:MHPA:1,2012-10-06T09:00:00Z,30.6671,-87.9365,4.613,7.57,1111122 
DISL,ioos:station:DISL:MHPA:1,2012-10-06T09:30:00Z,30.6671,-87.9365,4.534,7.58,1111122 
DISL,ioos:station:DISL:MHPA:1,2012-10-06T10:00:00Z,30.6671,-87.9365,4.433,7.48,1111122 
DISL,ioos:station:DISL:MHPA:1,2012-10-06T10:30:00Z,30.6671,-87.9365,4.302,7.31,1111122 
DISL,ioos:station:DISL:MHPA:1,2012-10-06T11:00:00Z,30.6671,-87.9365,4.202,7.43,1111122 
DISL,ioos:station:DISL:MHPA:1,2012-10-06T11:30:00Z,30.6671,-87.9365,4.114,7.06,1111122 
DISL,ioos:station:DISL:MHPA:1,2012-10-06T12:00:00Z,30.6671,-87.9365,3.989,7.36,1111122 
DISL,ioos:station:DISL:MHPA:1,2012-10-06T12:30:00Z,30.6671,-87.9365,3.862,7.28,1111122 
DISL,ioos:station:DISL:MHPA:1,2012-10-06T13:00:00Z,30.6671,-87.9365,3.739,7.21,1111122 
DISL,ioos:station:DISL:MHPA:1,2012-10-06T13:30:00Z,30.6671,-87.9365,3.669,7.04,1111122 
DISL,ioos:station:DISL:MHPA:1,2012-10-06T14:00:00Z,30.6671,-87.9365,3.57,6.91,1111122 
DISL,ioos:station:DISL:MHPA:1,2012-10-06T14:30:00Z,30.6671,-87.9365,3.465,7.68,1111122 
DISL,ioos:station:DISL:MHPA:1,2012-10-06T15:00:00Z,30.6671,-87.9365,3.381,7.08,1111122 